星链-36980(STARLINK-36980)

导读

STARLINK-36980(NORAD编号68146)是美国SpaceX公司星链(Starlink)卫星互联网星座的成员之一,属于低轨通信卫星。星链项目旨在通过部署近万颗低轨卫星,为全球偏远、基础设施缺失地区提供高速低延迟互联网服务,该卫星运行于近地轨道,符合星链星座整体轨道规划。2026年SpaceX启动降轨计划,计划将包含STARLINK-36980在内的4400颗星链卫星轨道高度从550公里降至480公里,降低轨道可减少卫星脱轨时间,降低碰撞风险与太空碎片隐患,提升太空运行安全性。目前该卫星随星链星座整体部署,为全球用户提供卫星互联网接入服务,支持家庭、移动及商业等多场景联网需求。

基本信息
目录编号:
68146
目录名称:
STARLINK-36980
国际标识:
2026-049E
轨道中心:
EARTH
卫星名称:
星链-36980
卫星全名:
星链-36980(STARLINK-36980)
卫星状态:
在轨 (已飞行176 天)
发射日期:
2026-03-13 UTC
国别 :
美国 (US)
星等 :
--
轨道信息
数据来源 国际轨道数据 AOE轨道数据
星历时间 2026-09-04T07:31:43+0800
1天前
查看轨道信息
2026-09-03T22:00:00+0800
1天前
查看轨道信息
半长轴 6843.582km 6843.67km
偏心率 0.0001285 0.000171
轨道倾角 97.285° 97.284°
近地点辐角 114.104° 102.305°
升交点赤经 267.240° 266.847°
平近点角 246.033° 227.504°
近地点 464.565km 464.362km
远地点 466.325km 466.704km
周期 93.904分钟 93.906分钟
每日圈数 15.33478 15.334485
详细信息
固有亮度:
5
最大亮度:
2.5
卫星平台:
Starlink V1.0
覆盖范围:
全球
运营商:
太空探索技术公司
运营商所在国:
美国
制造商(研发单位):
太空探索技术公司
制造商所在国:
美国
使用方式:
暂无
卫星简介
Starlink 计划是 SpaceX 推出的全球卫星互联网项目,通过发射低轨道卫星,为全球尤其是偏远地区提供高速、低延迟的互联网服务。自 2019 年起,Starlink 已部署数千颗卫星,旨在缩小全球数字鸿沟,推动互联网普及。该项目还为军事、航空等行业提供通信支持,带来广泛经济效益。
2D轨道图
3D轨道图
轨道高度分析图
轨道倾角分析图
轨道综合分析图
查看轨道综合分析图